Home   Weather   Esch-sur-Alzette   Past weeks

Flag for Luxembourg Past Weather in Esch-sur-Alzette, Luxembourg — Yesterday and Last 2 Weeks

Now
54 °F

Passing clouds.


Feels Like: 52 °F
Forecast: 53 / 60 °F
Wind: 6 mph from Southwest

Location: Luxembourg Airport

Current Time: Sep 29, 2016 at 8:51:32 AM

Latest Report: Sep 29, 2016 at 7:50 AM


Visibility: N/A

Pressure: 30.21 "Hg

Humidity: 94%

Dew Point: 52 °F

Location of Esch-sur-AlzetteLocation

Past Weather in Esch-sur-Alzette — Graph

°F

Esch-sur-Alzette Temperature Yesterday

Maximum temperature yesterday: 68 °F (at 5:50 PM)
Minimum temperature yesterday: 50 °F (at 6:20 AM)
Average temperature yesterday: 59 °F

High & Low Weather Summary for the Past Weeks

 TemperatureHumidityPressure
High86 °F (Sep 14, 4:20 PM)100% (Sep 16, 4:50 AM)30.39 "Hg (Sep 16, 4:50 AM)
Low48 °F (Sep 22, 5:50 AM)33% (Sep 14, 6:20 PM)29.80 "Hg (Sep 15, 4:50 AM)
Average60 °F73%30.12 "Hg
* Reported Sep 14 7:20 AM — Sep 29 7:20 AM, Esch-sur-Alzette, Weather by CustomWeather, © 2016

Note: Actual official high and low records may vary slightly from our data, if they occured in-between our weather recording intervals... More about our weather records

Advertising

Esch-sur-Alzette Weather History for the Previous 24 Hours

Scroll right to see more
 ConditionsComfort  
Time TempWeatherWind HumidityBarometerVisibility
7:20 AM
Thu, Sep 29
54 °FPassing clouds.7 mph94%30.21 "Hg5 mi
6:50 AM54 °FPassing clouds.6 mph100%30.21 "HgN/A
6:20 AM54 °FPassing clouds.7 mph94%30.21 "HgN/A
5:50 AM55 °FClear.7 mph94%30.24 "Hg10 mi
5:20 AM55 °FClear.7 mph94%30.24 "Hg10 mi
4:50 AM55 °FClear.7 mph94%30.24 "Hg10 mi
4:20 AM55 °FClear.7 mph94%30.24 "Hg10 mi
3:50 AM55 °FCool.9 mph100%30.27 "HgN/A
3:20 AM55 °FCool.6 mph94%30.27 "HgN/A
2:50 AM55 °FCool.7 mph94%30.27 "HgN/A
2:20 AM57 °FClear.6 mph94%30.30 "Hg10 mi
1:50 AM57 °FCool.8 mph94%30.30 "HgN/A
1:20 AM57 °FCool.8 mph94%30.30 "HgN/A
12:50 AM57 °FClear.7 mph94%30.30 "Hg10 mi
12:20 AM57 °FClear.6 mph94%30.33 "Hg10 mi
11:50 PM
Wed, Sep 28
57 °FClear.6 mph94%30.33 "Hg10 mi
11:20 PM59 °FClear.6 mph88%30.33 "Hg10 mi
10:50 PM59 °FPassing clouds.6 mph88%30.33 "HgN/A
10:20 PM61 °FClear.7 mph83%30.33 "Hg10 mi
9:50 PM61 °FClear.7 mph83%30.33 "Hg10 mi
9:20 PM61 °FClear.6 mph83%30.33 "Hg10 mi
8:50 PM59 °FClear.5 mph82%30.36 "Hg10 mi
8:20 PM61 °FClear.5 mph83%30.36 "Hg10 mi
7:50 PM63 °FClear.8 mph77%30.33 "Hg10 mi
7:20 PM64 °FClear.9 mph73%30.33 "Hg10 mi
6:50 PM66 °FSunny.13 mph68%30.33 "Hg10 mi
6:20 PM66 °FPassing clouds.14 mph68%30.33 "HgN/A
5:50 PM68 °FPassing clouds.13 mph60%30.36 "HgN/A
5:20 PM66 °FPassing clouds.12 mph64%30.36 "HgN/A
4:50 PM66 °FPartly sunny.15 mph68%30.36 "HgN/A
4:20 PM66 °FPartly sunny.14 mph68%30.36 "HgN/A
3:50 PM66 °FPartly sunny.12 mph68%30.36 "HgN/A
3:20 PM64 °FPartly sunny.10 mph73%30.36 "HgN/A
2:50 PM64 °FOvercast.13 mph73%30.36 "HgN/A
2:20 PM64 °FPartly sunny.10 mph68%30.36 "HgN/A
1:50 PM64 °FBroken clouds.13 mph68%30.39 "HgN/A
1:20 PM63 °FPartly sunny.13 mph73%30.39 "HgN/A
12:50 PM63 °FPartly sunny.9 mph68%30.39 "HgN/A
12:20 PM61 °FBroken clouds.9 mph72%30.39 "HgN/A
11:50 AM63 °FPartly sunny.9 mph64%30.39 "HgN/A
11:20 AM61 °FPartly sunny.8 mph63%30.39 "HgN/A
10:50 AM59 °FPartly sunny.8 mph68%30.39 "HgN/A
10:20 AM59 °FScattered clouds.7 mph63%30.39 "HgN/A
9:50 AM57 °FSunny.6 mph63%30.36 "Hg10 mi
9:20 AM55 °FSunny.6 mph72%30.36 "Hg10 mi
8:50 AM52 °FPassing clouds.3 mph82%30.36 "HgN/A
8:20 AM52 °FSunny.3 mph77%30.36 "Hg10 mi
Weather by CustomWeather, © 2016

See weather overviewHow to use our weather pages